Lid_Strength_Index
5 6 5 6 5 6 6 6 8 10 9 7 7 5 5 4 4 4 4 4 4 5 6 6 6 5 5 5 5 3 3 3 3 3 3 2 2 2
4 4 4 4 5 5 5 6 7 8 10 8 7 6 5 5 5 4 4 4 5 5 5 5 5 5 6 6 6 5 5 3 3 3 4 4 3 2
4 4 5 5 5 6 6 6 7 7 9 8 6 6 6 5 5 5 4 4 5 5 5 5 5 5 6 6 7 6 6 6 4 4 4 4 4 3
5 5 6 6 6 6 6 6 6 6 7 9 7 7 6 6 6 6 6 6 5 5 5 5 5 6 6 6 7 7 6 6 6 6 6 5 5 5
6 6 6 6 7 7 7 7 7 8 7 8 9 7 7 7 7 6 6 6 6 6 6 6 6 6 6 6 6 6 6 6 7 7 8 7 7 7
6 7 7 7 8 8 8 8 8 8 8 9 9 8 8 7 7 8 8 6 7 6 6 7 6 6 6 6 6 6 6 6 6 7 8 9 10 9
7 7 7 7 8 8 8 8 8 9 9 10 10 9 9 9 9 8 8 7 7 6 7 6 6 6 6 6 6 6 6 5 6 6 7 8 9 9
8 8 8 8 8 8 8 8 8 9 9 9 9 9 8 8 7 7 7 8 9 5 7 7 6 6 6 6 6 6 6 6 6 6 6 8 9 10
8 8 8 8 7 7 8 8 8 8 8 8 9 9 9 8 7 8 7 7 7 5 6 8 6 7 6 6 7 7 7 7 6 6 6 8 10 10
8 8 8 8 8 9 9 8 7 7 7 8 8 8 7 7 7 7 7 7 6 6 5 9 6 7 6 6 7 7 7 7 7 7 7 8 9 10
7 8 8 8 8 7 8 8 8 8 7 7 7 7 7 7 7 7 8 9 9 8 6 8 6 7 6 6 5 7 7 7 7 7 7 8 9 10
7 7 7 8 8 8 8 9 10 9 9 8 8 7 7 6 7 7 7 9 9 9 7 8 7 7 8 5 6 5 6 8 8 8 7 8 9 9
8 8 7 7 7 8 9 9 9 8 9 8 8 7 7 6 6 6 6 7 8 8 7 7 8 7 7 7 6 5 6 7 7 7 8 8 9 9
7 7 6 8 9 10 10 9 9 9 8 8 8 8 8 7 6 6 6 5 5 6 6 7 8 8 8 8 8 5 6 6 7 8 9 9 10 10
6 7 8 10 11 10 10 10 10 10 9 9 8 7 7 6 5 5 5 5 5 6 6 6 7 7 7 8 8 7 7 7 7 8 7 7 7 8
8 8 10 11 11 11 10 10 10 10 10 10 9 7 6 7 6 5 6 6 7 7 6 6 6 6 7 7 7 8 6 7 6 7 7 7 7 8
9 10 11 12 12 11 11 11 10 10 10 10 9 8 7 6 6 5 5 5 6 7 7 6 6 6 6 7 8 7 7 7 6 6 9 8 7 7
10 12 13 13 13 13 12 12 12 12 11 11 10 9 8 8 7 6 5 6 6 6 6 6 6 7 7 7 6 7 7 7 7 6 7 8 7 7
12 13 14 14 14 13 13 13 13 12 11 11 11 11 9 8 7 7 6 6 6 6 5 4 5 6 8 9 8 9 8 7 7 8 7 8 7 6
13 14 14 14 14 14 14 14 13 12 12 12 12 11 11 9 9 8 7 6 5 5 5 5 5 6 7 7 8 9 9 7 8 8 9 8 8 10
15 14 14 14 15 14 14 14 14 13 13 12 12 12 11 11 10 10 9 8 7 6 7 7 7 7 6 7 9 10 9 8 8 8 9 9 9 9
15 15 15 15 15 15 14 15 14 13 13 13 12 12 12 11 11 11 10 9 8 8 8 7 7 6 6 8 10 11 11 10 9 9 9 10 9 10
15 15 15 15 15 15 15 15 15 14 14 14 13 12 12 12 11 10 10 10 9 9 8 8 8 8 9 8 9 10 11 10 9 9 9 10 10 10